www.pogodaiklimat.ru
Время
(UTC), дата
00 12.04
03 12.04
06 12.04
09 12.04
12 12.04
15 12.04
18 12.04
21 12.04
00 13.04
03 13.04
06 13.04
09 13.04
12 13.04
15 13.04
18 13.04
21 13.04
00 14.04
03 14.04
06 14.04
09 14.04
12 14.04
15 14.04
18 14.04
21 14.04
00 15.04
03 15.04
06 15.04
09 15.04
12 15.04
15 15.04
18 15.04
21 15.04
00 16.04
03 16.04
06 16.04
09 16.04
12 16.04
15 16.04
18 16.04
21 16.04
00 17.04
03 17.04
06 17.04
09 17.04
12 17.04
15 17.04
18 17.04
21 17.04
00 18.04
03 18.04
06 18.04
09 18.04
12 18.04
15 18.04
18 18.04
21 18.04
Ветер
(напр.,м/с)
Видим. Явления Облачность Т
(С)
Тd
(С)
f
(%)
Тe
(С)
Тes
(С)
Комфортность P
(гПа)
Po
(гПа)
Тmin
(С)
Tmax
(С)
R
(мм)
R24
(мм)
S
(см)
СЗ 2 20 км 3/0
[Ci fib]
+8.5 -5.9 36 +7 +7 по сезону 1025.6 1005.1
штиль 0 20 км 1/0
[Ci fib]
+5.0 -5.4 47 +5 +5 по сезону 1024.3 1003.3
С 1 20 км 5/0
[Ci]
+8.2 -3.2 44 +8 +13 по сезону 1023.8 1003.4 +5.0
С 2 20 км 10/0 2000 м
[Ac lent Ci]
+14.6 -4.5 26 +15 +23 тепло 1023.0 1002.6
В 1 20 км 10/0
[Ac lent Ci]
+18.4 -7.1 17 +19 +26 тепло 1018.5 998.5
штиль 0 20 км 10/0
[Ac cast Ci]
+19.2 -7.2 16 +19 +20 тепло 1017.6 997.7
ЮВ 2 20 км 10/0
[Ac cast Ci]
+12.1 +0.5 45 +12 +12 тепло 1018.9 998.5 +19.4
В 2 20 км 3/0
[Ci]
+8.2 -0.1 56 +7 +7 по сезону 1019.3 998.6
ЮЗ 2 20 км 3/0
[Ci fib]
+6.5 -0.3 62 +5 +5 по сезону 1018.4 997.6
В 1 20 км 8/3 600 м
[Sc Ac lent Ci]
+4.7 -0.2 71 +4 +4 по сезону 1020.0 999.3
Ю 1 20 км 10/0 2000 м
[Ac lent Ci fib]
+8.4 +2.5 66 +8 +11 по сезону 1019.4 998.9 +4.3
Ю 3 20 км 10/3 600 м
[Cu hum Ac trans Cs]
+16.2 +1.8 38 +16 +20 тепло 1019.0 998.3
Ю 4 20 км 10/1 600 м
[Cu hum Ac trans Ci fib]
+18.2 -0.6 28 +18 +22 тепло 1017.6 997.8
ЮВ 4 20 км 10/1 600 м
[Cu hum Ac trans Ci]
+18.0 -0.4 29 +18 +19 тепло 1016.6 997.1
Ю 4 20 км 8/0 2000 м
[Ac und Ci fib]
+12.5 +2.3 50 +11 +11 по сезону 1017.5 996.7 +18.4
Ю 3 20 км 9/0 2000 м
[Ac und]
+8.7 +3.2 68 +6 +6 по сезону 1017.6 997.5
ЮВ 3 20 км 8/0 2000 м
[Ac und]
+5.9 +3.5 85 +3 +3 по сезону 1017.7 997.4
штиль 0 200 м туман ?/? +5.0 +4.4 96 +4 +4 по сезону 1014.9 994.0
В 2 4000 м дымка {туман} 10/10 600 м
[Cb calv]
+6.5 +5.2 91 +4 +4 по сезону 1017.1 996.1 +4.3
ЮВ 3 20 км 10/8 600 м
[Cu med, cong Ac trans]
+9.8 +4.2 68 +8 +9 по сезону 1014.0 993.5
ЮВ 4 20 км 10/10 600 м
[Cb calv]
+9.4 +3.8 68 +7 +7 холодно 1013.0 992.5
В 3 20 км слаб. ливневой дождь 10/10 600 м
[Cb calv]
+7.4 +6.2 92 +4 +4 холодно 1014.6 994.2
В 2 20 км слаб. ливневой дождь 10/10 600 м
[Cb calv]
+6.6 +5.8 95 +4 +4 холодно 1013.8 993.4 +9.4 4
С 2 10 км слаб. ливневой дождь 10/10 600 м
[Cb calv]
+6.3 +5.6 95 +4 +4 прохладно 1013.5 993.1
С 4 10 км слаб. ливневой дождь 10/10 600 м
[Cb calv]
+5.8 +5.2 96 +2 +2 прохладно 1012.8 991.8
СЗ 4 4000 м слаб. ливневой дождь 10/10 600 м
[Cb calv]
+5.9 +5.4 97 +2 +2 прохладно 1012.5 992.2
СЗ 4 10 км слаб. ливневой дождь 10/10 600 м
[Cb calv]
+5.1 +4.3 95 +1 +1 прохладно 1013.4 993.4 +4.9 3
СЗ 7 10 км слаб. ливневой дождь 10/10 600 м
[Cb calv]
+5.6 +4.1 90 0 0 очень
холодно
1014.2 993.7
СЗ 6 10 км слаб. ливневой дождь 10/10 600 м
[Cb calv]
+6.2 +3.8 85 +1 +1 очень
холодно
1014.9 995.0
СЗ 6 10 км слаб. ливневой дождь 10/10 600 м
[Frnb]
+5.7 +3.6 86 +1 +1 очень
холодно
1015.1 994.8
СЗ 5 10 км слаб. ливневой дождь 10/10 600 м
[Cb calv]
+5.4 +3.4 87 +1 +1 очень
холодно
1015.9 995.5 +6.3 0.3
СЗ 5 10 км {ливн. дождь} 10/10 600 м
[Cb calv]
+4.3 +2.4 87 -1 -1 очень
холодно
1016.3 995.2
СЗ 5 10 км {ливн. дождь} 8/5 600 м
[Cb calv Ac trans]
+3.7 +1.3 84 -1 -1 холодно 1016.1 995.4
СЗ 4 20 км 9/5 600 м
[Sc diur, vesp Ac trans]
+2.8 +0.6 85 -2 -2 холодно 1016.0 995.6
СЗ 5 20 км 10/5 600 м
[Sc Ac und]
+4.5 +1.6 81 -0 0 прохладно 1017.0 996.4 +2.4 0.0
З 4 20 км 10/8 600 м
[Cu med, cong Ac trans]
+7.3 +0.8 63 +4 +5 прохладно 1017.4 997.1
З 6 20 км {ливн. дождь} 10/8 600 м
[Cu med, cong Ac lent]
+9.2 -1.0 49 +6 +6 прохладно 1016.7 996.6
С 3 20 км 10/10 600 м
[Cb calv]
+8.3 +0.8 59 +6 +6 прохладно 1017.2 996.5
З 1 20 км {ливн. дождь} 10/10 600 м
[Sc]
+7.2 +0.7 63 +7 +7 по сезону 1018.5 997.7 +9.6 0.0
ЮЗ 1 20 км 5/0 2000 м
[Ac lent Ci]
+6.1 +1.0 70 +5 +5 по сезону 1019.3 998.8
З 1 20 км 3/0 2000 м
[Ac lent]
+4.9 +0.6 74 +4 +4 по сезону 1020.2 999.6
СЗ 1 20 км ясно +4.0 -0.1 75 +3 +3 по сезону 1020.5 999.6
З 1 20 км 1/0 2000 м
[Ac lent]
+7.1 +2.6 73 +6 +12 по сезону 1021.3 1000.6 +3.4
Ю 2 20 км 10/8 600 м
[Cu med, cong Ac und]
+10.6 +0.2 49 +10 +10 тепло 1021.3 1001.3
СЗ 1 20 км 10/4 600 м
[Cu hum Ac und Ci fib]
+11.9 -1.8 38 +12 +17 тепло 1020.1 999.7
В 2 20 км 10/3 600 м
[Cu hum Ac und]
+12.4 -1.0 39 +12 +12 тепло 1019.1 998.2
В 2 20 км 10/0 2000 м
[Ac und]
+10.6 +1.0 51 +10 +10 тепло 1019.7 999.4 +13.4
С 2 20 км 10/0 2000 м
[Ac und]
+9.0 +2.2 62 +8 +8 по сезону 1020.3 999.7
СВ 1 20 км 10/0 2000 м
[Ac und]
+7.9 +2.9 71 +7 +7 тепло 1019.7 998.9
С 2 20 км 10/0 2000 м
[Ac und]
+7.3 +3.1 75 +5 +5 по сезону 1014.3 999.4
С 2 20 км 10/4 600 м
[Sc Ac trans]
+7.7 +3.6 75 +6 +7 по сезону 1019.8 999.2 +5.6
В 3 20 км 10/3 600 м
[Cu hum Ac trans Ci fib]
+11.6 +3.0 56 +10 +14 тепло 1018.8 998.4
В 3 20 км 10/8 600 м
[Sc Ac trans]
+13.0 +0.6 43 +12 +13 тепло 1017.4 997.8
СВ 1 20 км 10/8 600 м
[Cb calv Ac und]
+12.5 +0.6 44 +13 +13 тепло 1017.5 996.9
С 5 20 км слаб. ливневой дождь 10/10 600 м
[Cb calv]
+9.0 +4.2 72 +6 +6 по сезону 1018.1 998.4 +13.4 0.0
штиль 0 20 км слаб. ливневой дождь 10/10 600 м
[Cb calv]
+7.9 +6.5 91 +7 +7 по сезону 1017.6 996.9
Местоположение метеостанции Кишинев (Молдова): широта 47.02 долгота 28.98 высота над уровнем моря 173 м.
В архиве по умолчанию представлена погода в Кишиневе за последнюю неделю. Архивные данные за месяц целиком и за предыдущие месяцы, начиная с января 2011 года, Вы можете получить, выбрав интересующий диапазон дат из раскрывающегося списка и нажав кнопку "Найти!".
*Определитесь, кто Вы:
Внимание! Время в таблицах - всемирное. Для получения местного времени необходимо прибавить поправку, которая равна 2 ч.
Смотрите также архив погоды в соседних городах и на ближайших метеорологических станциях:
Партнеры нашего сайта:      
Пояснения к столбцам:
  • Ветер - указаны скорость ветра в м/с - средняя за 10 мин, порывы в срок и между сроками (в фигурных скобках) и направление, откуда дует ветер: С - северный,
  • СВ - северо-восточный, В - восточный, ЮВ - юго-восточный, Ю - южный, ЮЗ - юго-западный, З - западный, СЗ - северо-западный.
  • Видимость - горизонтальная дальность видимости в метрах или километрах. При видимости от 1 до 10 км при отсутствии осадков обычно наблюдается дымка, при ухудшении видимости до 1 км и менее - туман. В сухую погоду видимость может ухудшаться дымом, пылью или мглою.
  • Явления - указаны атмосферные явления, наблюдавшиеся в срок или в последний час перед сроком; фигурными скобками обозначены явления, наблюдавшиеся между сроками (за 1-3 часа до срока); квадратными скобками обозначены град или гололедные отложения с указанием их диаметра в мм.
  • Облачность - указаны через наклонную черту общая и нижняя облачность в баллах и высота нижней границы облаков в метрах; квадратными скобками обозначены формы облаков: Ci - перистые, Cs - перисто-слоистые, Cc - перисто-кучевые, Ac - высококучевые, As - высокослоистые, Sc - слоисто-кучевые, Ns - слоисто-дождевые, Cu - кучевые, Cb - кучево-дождевые. Подробнее классификацию облаков см. в Атласе облаков (PDF).
  • T - Температура воздуха - температура, измеренная на высоте 2 м над землей.
  • Td - Температура точки росы - температура, при понижении до которой содержащийся в воздухе водяной пар достигнет насыщения.
  • f - Относительная влажность воздуха - влажноcть воздуха, измеренная на высоте 2 м над землей.
  • Te - Эффективная температура - температура, которую ощущает одетый по сезону человек в тени. Характеристика душности погоды. При расчете учитывается влияние влажности воздуха и скорости ветра на теплоощущения человека.
  • Tes - Эффективная температура на солнце - температура, которую ощущает человек, с поправкой на солнечный нагрев. Характеристика знойности погоды. Зависит от высоты солнца над горизонтом, облачности и скорости ветра. Ночью, в пасмурную погоду, а также при ветре 12 м/с и более поправка равна нулю.
  • P - Атмосферное давление - приведенное к уровню моря атмосферное давление.
  • Po - Атмосферное давление - измеренное на уровне метеостанции атмосферное давление.
  • Tmin - Минимальная температура - минимум температуры воздуха на высоте 2 м над землей.
  • Tmax - Максимальная температура - максимум температуры воздуха на высоте 2 м над землей.
  • R - Количество осадков - Количество выпавших осадков за период времени, мм. При наведении курсора мыши на число - период времени, за который выпало указанное количество осадков.
  • R24 - Количество осадков - Количество выпавших осадков за 24 часа, мм.
  • S - Снежный покров - Высота снежного покрова, см. При наведении курсора мыши на число - состояние снежного покрова и степень покрытия местности в баллах.